Location: ?????
(37.7324°N, 23.9257°E)
Time: 07:39:08
(UTC+00:00)

CENTAUR R/B - Pass Details

Date: 29 November 2020
Orbit: 750 x 1438 km, 63.4° (Epoch: 11 January)

Event Time Altitude Azimuth Distance (km) Brightness Sun altitude
Exits shadow 04:01:37 19° 299° (WNW) 2,832 4.3 -15.1°
Maximum altitude 04:06:43 34° 250° (WSW) 2,180 3.9 -14.1°
Drops below altitude 10° 04:14:21 10° 190° (S) 3,532 5.5 -12.7°
Sets 04:17:36 0° 181° (S) 4,482 6.2 -12.1°
